Wind_Speed
42 43 43 43 43 42 43 43 43 43 43 43 43 42 43 43 44 44 44 44 44 44 44 44 44 44 44 45 45 45 45 45 45 46 46 47 47 48
42 42 42 42 42 42 43 43 44 44 44 43 43 43 44 44 44 44 44 45 45 45 46 45 45 45 45 46 47 47 46 46 47 48 48 48 49 48
41 41 41 42 42 43 43 44 44 45 46 45 45 45 45 44 44 44 44 45 45 46 46 47 46 47 47 47 47 47 47 47 48 49 49 49 49 48
40 40 40 41 42 42 43 44 45 45 46 46 46 47 47 46 46 46 46 45 45 46 47 48 48 48 47 47 47 47 48 48 49 49 49 49 48 48
40 40 40 41 42 43 44 45 46 46 46 46 46 47 47 47 47 47 47 46 46 46 47 48 49 48 48 48 47 48 48 48 49 49 49 49 49 49
39 39 40 41 41 42 43 44 45 46 46 46 47 47 47 48 48 47 47 47 47 47 48 48 49 48 48 48 48 48 48 48 48 49 49 48 48 48
38 39 39 40 41 41 42 43 44 46 46 47 47 47 47 47 48 48 48 48 48 48 48 48 48 49 47 47 48 48 48 48 48 48 48 47 46 46
38 38 38 39 39 40 41 42 42 44 45 46 46 46 47 46 47 47 47 48 47 47 47 46 46 47 47 47 47 48 48 48 47 47 46 46 46 46
36 36 37 37 38 38 39 40 40 41 43 44 44 44 44 44 45 46 46 46 46 46 46 46 46 46 46 46 47 47 47 46 45 45 44 44 44 44
35 35 36 36 37 37 38 38 39 40 41 42 42 42 42 43 43 44 44 44 43 43 44 44 45 45 46 46 46 46 45 44 44 43 43 43 43 43
34 35 35 36 36 36 36 37 37 38 39 40 40 39 39 40 40 41 40 40 40 40 40 41 42 42 43 42 42 42 42 42 42 42 42 42 41 41
33 33 33 33 34 34 34 34 35 35 36 37 37 37 37 37 38 38 38 37 37 37 38 39 40 40 40 40 40 40 40 40 40 40 40 39 39 38
32 32 32 32 32 32 32 32 32 33 33 34 34 34 34 35 35 35 36 35 35 35 35 36 37 37 37 37 38 39 39 39 38 38 37 36 36 36
30 30 30 30 30 30 30 31 31 31 31 31 31 31 32 32 32 33 33 33 33 33 32 33 33 33 34 35 35 36 36 35 35 34 34 33 33 33
28 28 28 28 28 28 28 28 29 29 29 29 30 30 30 31 30 31 31 31 30 30 30 30 30 31 32 32 32 32 32 32 32 32 32 31 31 30
26 26 27 27 27 26 27 27 27 27 27 28 28 29 29 29 29 28 28 28 28 28 28 28 29 29 30 30 30 30 30 30 30 31 31 30 29 29
25 25 25 25 26 26 25 26 26 26 26 26 27 27 27 28 27 27 27 26 26 27 27 27 28 28 28 28 28 27 27 27 28 28 28 27 27 26
23 23 23 23 24 24 24 24 24 25 25 24 24 24 25 25 25 25 26 26 25 25 25 26 26 27 27 26 26 25 25 25 24 25 25 25 25 25
20 21 21 21 21 22 22 22 22 23 22 22 23 23 22 22 23 23 24 24 23 24 24 24 25 25 25 24 24 24 23 22 22 23 23 24 24 24
19 19 19 19 19 19 20 20 20 20 20 20 21 21 21 20 20 21 21 21 22 23 23 23 23 23 23 22 21 21 21 21 21 21 21 22 22 22
18 18 17 17 18 18 18 18 18 18 18 18 19 19 19 18 18 19 19 20 20 20 20 20 20 21 20 20 19 18 18 18 19 19 19 19 20 20
16 16 16 16 15 15 16 16 16 16 16 16 16 16 16 16 16 16 16 17 17 17 17 17 17 17 17 17 17 16 16 16 16 17 17 17 17 17
15 15 14 14 13 13 13 14 14 13 13 13 14 14 14 14 14 13 14 14 14 14 14 14 14 13 14 14 14 14 14 14 14 14 14 14 14 15
Wind_Direction
262 261 260 260 260 260 260 260 261 260 260 262 263 264 265 266 266 267 268 269 269 269 269 269 270 271 272 272 273 274 274 274 275 276 277 278 279 281
263 261 260 259 259 260 261 261 261 261 261 262 264 265 265 266 266 266 267 267 269 269 269 269 270 271 272 273 273 275 275 274 274 276 277 278 279 280
263 262 261 261 261 261 261 261 262 262 261 262 264 265 265 266 266 266 266 268 269 269 269 269 270 271 272 273 274 275 275 275 276 277 278 279 280 280
262 262 262 262 262 262 261 261 262 262 262 263 264 265 266 266 266 266 267 268 269 269 269 269 270 272 272 273 274 275 275 276 277 278 279 279 280 280
262 263 263 263 263 263 262 262 263 263 263 263 264 266 266 267 266 266 266 267 268 269 270 270 271 272 273 274 274 275 276 277 277 278 279 279 280 280
263 263 263 265 265 265 265 264 264 264 265 265 266 267 267 266 266 266 267 267 268 269 269 270 271 272 273 274 275 275 276 276 277 278 278 279 280 280
265 265 264 265 266 267 266 266 266 266 266 266 267 267 267 267 266 267 267 268 269 268 269 269 271 272 272 274 275 275 275 276 277 278 278 278 278 279
267 267 266 266 267 267 268 268 267 267 267 267 267 268 268 267 266 267 269 269 269 268 269 270 271 272 273 274 275 275 275 276 277 277 278 278 278 278
268 268 268 268 268 269 269 269 268 269 269 269 269 269 269 267 266 267 268 270 270 270 269 270 271 273 273 274 275 276 276 276 277 277 278 278 278 279
269 269 269 270 270 270 270 270 270 270 270 269 269 268 267 267 268 268 269 270 270 270 269 270 271 272 273 274 275 276 276 275 276 277 278 279 279 280
269 270 271 272 272 271 271 271 271 271 271 270 269 267 267 268 268 268 269 270 271 271 271 272 272 273 274 275 275 275 276 276 277 278 279 280 280 280
270 271 272 272 272 271 271 272 272 272 273 272 270 268 268 268 268 268 269 271 272 273 273 274 274 274 274 274 274 274 276 277 278 279 279 280 280 281
271 272 272 272 272 272 272 272 273 273 273 273 271 269 268 268 269 270 271 273 274 275 276 276 276 275 275 275 275 275 276 277 278 279 281 280 280 280
271 272 272 272 272 273 274 274 274 274 274 273 271 270 269 269 271 272 273 274 276 278 278 279 279 278 278 277 276 277 277 277 279 279 281 281 281 280
272 272 272 271 272 273 274 274 274 274 274 272 270 269 270 271 272 274 274 275 277 278 278 279 280 281 281 280 279 279 279 278 279 279 280 281 281 280
273 272 272 272 273 273 274 274 275 274 273 272 270 270 271 273 273 273 273 274 276 277 278 279 280 282 283 283 282 281 280 280 279 279 280 280 281 282
273 273 273 273 272 271 272 273 273 274 274 272 270 270 272 273 273 273 274 275 276 276 277 280 282 284 284 283 283 282 281 280 280 280 280 280 281 284
273 273 273 274 273 271 272 272 273 274 274 272 270 272 273 274 274 274 274 275 276 275 276 280 283 284 285 285 283 282 281 280 279 279 279 280 281 284
273 274 275 275 274 273 273 273 274 275 274 272 272 272 273 275 275 275 275 275 276 277 279 281 283 285 285 286 285 283 281 279 279 280 281 282 282 284
273 275 276 277 276 274 274 275 275 275 274 273 273 273 273 274 275 276 277 277 277 278 280 282 284 286 287 287 287 286 283 282 281 282 283 284 285 287
275 277 277 279 279 275 274 275 275 274 273 273 274 274 273 274 276 277 279 280 280 280 281 283 284 286 287 287 288 288 288 286 284 283 284 286 286 287
275 276 276 278 279 276 275 276 275 274 274 274 274 276 276 276 279 280 281 283 283 283 284 285 285 288 290 289 289 289 289 291 291 290 289 289 289 289
275 276 276 277 278 278 279 279 278 276 275 274 276 279 278 278 280 282 284 285 284 284 286 287 288 290 292 292 290 291 293 295 296 296 297 298 298 296
Height
5638 5640 5642 5643 5645 5646 5648 5650 5653 5655 5657 5659 5661 5661 5662 5663 5664 5665 5666 5666 5667 5667 5668 5668 5668 5668 5668 5667 5667 5666 5665 5664 5664 5663 5661 5660 5658 5656
5627 5628 5630 5632 5633 5635 5637 5639 5640 5643 5645 5648 5649 5649 5650 5651 5652 5653 5654 5655 5655 5655 5656 5656 5656 5656 5656 5655 5654 5654 5653 5652 5651 5650 5648 5647 5646 5643
5616 5617 5619 5620 5622 5624 5625 5627 5629 5630 5633 5635 5636 5637 5638 5639 5640 5641 5642 5643 5643 5644 5644 5644 5644 5644 5643 5642 5641 5640 5640 5639 5638 5637 5635 5634 5632 5630
5605 5606 5608 5609 5611 5612 5614 5615 5617 5618 5620 5623 5624 5624 5625 5626 5627 5628 5629 5630 5630 5631 5631 5631 5631 5631 5630 5629 5628 5628 5627 5626 5625 5623 5622 5620 5618 5616
5594 5596 5597 5598 5599 5601 5602 5603 5605 5606 5607 5609 5611 5611 5612 5613 5614 5615 5616 5617 5617 5618 5618 5618 5618 5618 5617 5617 5615 5614 5613 5612 5611 5609 5608 5606 5604 5602
5583 5584 5585 5587 5588 5588 5590 5591 5591 5593 5594 5596 5597 5598 5599 5600 5601 5602 5603 5604 5604 5605 5604 5604 5604 5604 5604 5603 5602 5601 5599 5598 5596 5595 5593 5591 5589 5587
5572 5573 5574 5575 5575 5576 5577 5578 5579 5580 5581 5582 5584 5585 5586 5586 5588 5588 5589 5590 5591 5591 5591 5591 5591 5591 5590 5589 5588 5586 5585 5583 5582 5580 5579 5577 5575 5573
5561 5562 5563 5563 5564 5564 5565 5565 5566 5567 5568 5568 5570 5571 5572 5573 5574 5574 5575 5576 5577 5578 5577 5577 5577 5577 5576 5575 5573 5572 5570 5569 5567 5566 5565 5563 5561 5560
5551 5551 5551 5552 5552 5552 5553 5553 5554 5554 5555 5555 5556 5557 5558 5559 5560 5561 5561 5561 5562 5563 5563 5563 5563 5563 5562 5560 5559 5558 5556 5555 5554 5553 5551 5550 5548 5547
5540 5540 5541 5541 5541 5541 5541 5542 5542 5542 5542 5543 5544 5544 5544 5545 5546 5547 5547 5548 5548 5549 5549 5550 5549 5549 5548 5547 5546 5544 5543 5542 5541 5539 5538 5537 5535 5533
5529 5530 5530 5530 5530 5530 5530 5530 5530 5530 5530 5531 5531 5531 5532 5533 5533 5534 5535 5535 5536 5536 5536 5536 5537 5536 5535 5534 5533 5531 5530 5529 5528 5527 5525 5524 5522 5521
5520 5520 5520 5519 5519 5519 5519 5519 5520 5520 5520 5520 5520 5520 5521 5521 5522 5522 5523 5524 5524 5525 5524 5524 5523 5522 5523 5522 5520 5519 5518 5517 5516 5515 5513 5511 5510 5509
5510 5510 5509 5509 5509 5509 5509 5509 5509 5509 5509 5509 5510 5510 5511 5511 5511 5512 5512 5513 5513 5513 5513 5512 5511 5510 5509 5510 5509 5508 5507 5506 5504 5503 5502 5500 5499 5497
5501 5500 5500 5500 5500 5500 5500 5500 5500 5500 5500 5500 5500 5501 5501 5502 5502 5502 5502 5502 5502 5502 5502 5501 5500 5499 5499 5498 5498 5497 5495 5494 5493 5492 5491 5490 5488 5487
5492 5492 5491 5491 5491 5491 5491 5491 5491 5491 5491 5492 5492 5492 5492 5493 5493 5493 5493 5493 5493 5492 5492 5491 5490 5490 5489 5488 5487 5486 5485 5484 5483 5482 5481 5480 5478 5477
5484 5483 5483 5483 5483 5483 5483 5483 5482 5482 5483 5483 5483 5484 5484 5484 5484 5484 5484 5484 5484 5484 5483 5482 5481 5480 5479 5478 5476 5476 5475 5474 5473 5472 5471 5470 5469 5467
5476 5476 5475 5475 5475 5475 5475 5475 5475 5475 5475 5475 5475 5476 5476 5476 5476 5476 5476 5476 5476 5475 5475 5474 5473 5471 5470 5469 5468 5466 5465 5464 5464 5463 5462 5461 5460 5459
5468 5468 5468 5467 5467 5467 5467 5467 5467 5467 5467 5467 5467 5468 5468 5468 5468 5468 5468 5468 5467 5467 5467 5466 5465 5463 5462 5460 5459 5458 5457 5456 5455 5455 5453 5453 5452 5451
5461 5461 5461 5460 5460 5460 5460 5460 5460 5460 5460 5460 5460 5460 5460 5460 5460 5460 5460 5460 5460 5459 5459 5458 5456 5455 5454 5453 5452 5450 5450 5449 5448 5447 5446 5445 5445 5443
5455 5454 5454 5454 5454 5453 5453 5453 5453 5453 5453 5453 5454 5454 5454 5454 5453 5453 5453 5452 5452 5452 5451 5450 5449 5448 5447 5446 5444 5443 5442 5442 5441 5440 5439 5439 5438 5436
5449 5449 5448 5448 5448 5447 5447 5447 5447 5447 5447 5447 5448 5448 5448 5448 5447 5447 5447 5446 5445 5445 5444 5444 5442 5441 5440 5439 5439 5438 5437 5436 5435 5434 5433 5433 5432 5431
5443 5443 5443 5443 5442 5442 5442 5442 5442 5442 5442 5442 5442 5442 5443 5442 5442 5442 5441 5441 5440 5439 5438 5438 5436 5436 5435 5434 5433 5433 5432 5431 5429 5428 5428 5427 5426 5425
5439 5438 5438 5438 5438 5437 5437 5437 5437 5437 5437 5437 5438 5438 5438 5438 5438 5437 5437 5436 5435 5434 5434 5433 5432 5431 5430 5430 5429 5428 5427 5426 5425 5424 5423 5422 5421 5420